TEVEL2-2

Last updated on Thu Oct 30 2025 00:03:11 GMT+0000 (Coordinated Universal Time)

1 63219U 25052K 25302.43220058 .00021744 00000+0 88556-3 0 9993 2 63219 97.4094 194.4663 0001932 173.8433 186.2829 15.24500067 34826
UTC large
Height (km)
Speed (km/s)
/
Latitude / Longitude
Inclination (degrees)
Orbital Period (minutes)
Azimuth
Elevation
Range (km)
Doppler Factor

Next 0 passes for location: London (51.5072 / 0.1276)

Sorry there are no passes over London.